Location: Trois-Rivi�res
(46.3500°N, 72.5500°W)
Time: 10:00:28
(UTC-05:00)

Daily predictions for brighter satellites

Satellite Brightness Start Highest point End
(mag) Time Altitude Azimuth Time Altitude Azimuth Time Altitude Azimuth
CZ-4C R/B 4.2 17:01:39 10° NW 17:05:45 18° N 17:10:14 10° NNE
Cosmos 2221 4.0 17:03:54 10° NNW 17:07:57 42° W 17:11:58 10° SSW
Cosmos 1763 Rocket 3.7 17:02:52 10° S 17:07:57 55° ESE 17:13:00 10° NNE
CZ-4 R/B 1.3 17:05:53 10° SSE 17:09:46 88° WSW 17:13:41 10° NNW
Cosmos 2333 4.4 17:04:48 10° S 17:10:15 56° ESE 17:15:44 10° NE
AQUARIUS 4.1 17:06:17 10° SSE 17:10:47 79° ENE 17:15:18 10° N
Cosmos 389 Rocket 2.8 17:08:42 10° NNW 17:12:18 74° W 17:15:50 10° S
Meteor 2-2 Rocket 4.3 17:07:41 10° N 17:13:16 60° ENE 17:18:50 10° SSE
Cosmos 332 Rocket 4.2 17:08:45 10° S 17:13:16 42° ESE 17:17:52 10° NE
Cosmos 2360 Rocket 2.8 17:10:34 10° SW 17:16:06 58° WNW 17:21:40 10° NNE
Cosmos 1980 Rocket 4.5 17:15:13 10° WNW 17:17:54 13° NW 17:20:36 10° N
ATLAS 3B R/B 4.4 17:14:01 10° WNW 17:19:42 23° NNW 17:25:11 10° NNE
USA 215 3.3 17:18:50 10° ESE 17:25:19 66° NNE 17:31:49 10° NW
Cosmos 540 Rocket 4.3 17:21:33 10° SSE 17:25:57 29° E 17:30:22 10° NE
MONITOR-E 4.4 17:23:20 10° SSE 17:26:25 50° ENE 17:29:31 10° N
Cosmos 2084 4.1 17:24:15 10° S 17:27:44 32° ESE 17:30:42 13° ENE
Meteor 1-21 Rocket 4.4 17:22:32 10° S 17:28:27 86° W 17:34:21 10° N
BREEZE-M DEB (TANK) 4.3 17:30:18 10° SSE 17:31:00 11° SE 17:31:41 10° ESE
CORIOLIS 4.3 17:25:52 10° SSE 17:31:13 79° WSW 17:36:37 10° NNW
Cosmos 44 4.3 17:26:44 10° S 17:31:17 30° ESE 17:35:09 13° ENE
ATLAS 5 CENTAUR R/B 4.1 17:30:10 10° NNW 17:32:49 13° N 17:35:36 10° NNE
ALOS 3.7 17:30:06 10° E 17:32:57 16° ENE 17:35:48 10° NNE
Cosmos 2333 Rocket 2.6 17:27:39 10° S 17:32:58 44° ESE 17:38:18 10° NE
Cosmos 1766 Rocket 4.4 17:29:46 10° SSW 17:34:09 55° WNW 17:38:32 10° N
OTV 4 3.2 17:33:01 10° SW 17:34:46 15° S 17:36:30 10° SSE
SJ-6B 4.0 17:31:34 10° ESE 17:34:48 23° ENE 17:38:04 10° NNE
COSMO-SKYMED 1 2.8 17:37:47 10° NNE 17:42:00 47° E 17:46:11 10° S
Resurs 01 Rocket 3.1 17:40:01 13° E 17:42:08 17° ENE 17:45:03 10° NNE
Cosmos 2219 Rocket 2.2 17:36:55 10° SSW 17:42:30 66° ESE 17:48:06 10° NNE
Cosmos 371 Rocket 3.3 17:38:25 10° S 17:43:09 60° ESE 17:47:53 10° NNE
Cosmos 2322 Rocket 4.4 17:41:21 10° W 17:45:17 19° NW 17:49:12 10° N
YAOGAN 1 3.5 17:41:09 10° S 17:45:22 53° W 17:49:38 10° NNW
Molniya-1 4.2 17:42:49 10° SW 17:45:46 89° NW 17:50:35 12° NE
Thor Agena Rocket 3.7 17:40:30 10° NNE 17:45:48 84° WNW 17:51:00 10° SSW
Cosmos 1125 Rocket 3.4 17:41:23 10° NNW 17:46:38 80° ENE 17:51:49 10° SSE
Cosmos 2278 Rocket 2.1 17:41:25 10° NNW 17:47:08 73° ENE 17:52:48 10° SSE
SPOT 3 Rocket 4.4 17:43:57 10° S 17:48:58 53° W 17:54:03 10° NNW
Cosmos 2058 3.4 17:45:23 10° SSE 17:49:08 35° E 17:52:54 10° NNE
Meteor 1-27 4.4 17:44:34 10° N 17:50:17 56° ENE 17:56:00 10° SSE
Cosmos 2279 Rocket 4.1 17:44:13 10° N 17:50:20 55° ENE 17:56:25 10° SSE
USA 116 4.4 17:47:50 10° N 17:50:58 41° WNW 17:53:55 10° SW
Cosmos 2228 Rocket 4.0 17:47:21 10° NNW 17:51:38 51° W 17:55:56 10° S
Transit 2A Rocket 4.4 17:53:46 10° NNW 17:58:08 66° NE 18:02:24 10° SE
Cosmos 1844 4.5 17:53:04 10° NNW 17:58:43 58° WSW 18:04:22 10° S
FREGAT/IRIS 3.6 17:59:50 27° NE 17:59:50 27° NE 18:02:01 10° N
Cosmos 1455 4.2 17:56:27 10° NNE 17:57:06 13° NNE 17:57:06 13° NNE
Spot 2 Rocket 4.3 17:55:29 10° ESE 17:59:42 28° ENE 18:03:56 10° N
Cosmos 1626 3.9 17:57:53 10° SE 17:59:17 17° ESE 17:59:17 17° ESE
NOAA 12 4.1 17:55:38 10° SSE 18:00:45 57° ENE 18:05:55 10° N
Cosmos 841 Rocket 4.0 17:57:25 10° SSW 18:02:39 63° WNW 18:07:54 10° NNE
Cosmos 44 Rocket 3.3 17:57:56 10° SSW 18:03:04 81° SE 18:06:56 17° NE
Cosmos 1340 Rocket 3.3 17:59:41 10° SSE 18:03:19 37° E 18:05:17 22° NE
Cosmos 1674 4.4 18:00:01 10° SW 18:03:30 34° WNW 18:07:04 10° N
CENTAUR R/B 3.0 17:59:14 10° SW 18:05:23 61° NW 18:12:00 12° NE
SL-14 R/B 3.1 18:05:44 10° S 18:09:39 81° E 18:13:39 10° N
Cosmos 2180 Rocket 4.4 18:04:24 10° N 18:10:32 64° E 18:16:40 10° SSE
Lacrosse 5 3.3 18:06:37 10° WNW 18:10:57 27° NNW 18:13:45 17° NNE
DNEPR-1 R/B 4.3 18:06:18 10° SSW 18:13:08 86° SE 18:17:18 19° NE
Nadezhda 4 Rocket 4.4 18:08:09 10° SSE 18:13:49 37° E 18:19:32 10° NNE
COSMOS 2428 3.7 18:08:34 10° SW 18:14:02 45° NW 18:19:32 10° NNE
Cosmos 1484 Rocket 4.0 18:10:19 10° S 18:14:04 44° W 18:17:55 10° NNW
Cosmos 2237 Rocket 2.1 18:09:01 10° SSW 18:14:36 72° ESE 18:19:13 16° NNE
Cosmos 1726 2.8 18:11:06 10° NNW 18:14:48 56° W 18:18:30 10° S
Cosmos 2369 Rocket 3.9 18:13:49 10° N 18:16:37 15° NNE 18:16:37 15° NNE
Cosmos 1300 3.5 18:14:48 10° NNW 18:18:33 53° W 18:22:17 10° S
SL-16 R/B 2.7 18:15:00 10° S 18:20:05 36° ESE 18:21:40 30° ENE
Cosmos 2151 3.0 18:15:56 10° SSW 18:20:08 77° W 18:24:22 10° N
Cosmos 1900 4.3 18:18:05 10° NNW 18:22:59 59° NE 18:25:42 26° ESE
Timation 1 Rocket 4.2 18:18:21 10° NNW 18:24:25 78° ENE 18:30:26 10° SSE
Cosmos 304 Rocket 3.9 18:22:13 10° S 18:26:50 48° ESE 18:28:10 37° ENE
Cosmos 2297 3.6 18:21:35 10° NNW 18:27:19 73° ENE 18:33:02 10° SSE
SKYMED 2 4.2 18:25:52 10° N 18:30:08 55° WNW 18:34:21 10° SSW
Cosmos 1151 Rocket 4.5 18:27:37 10° NNW 18:31:37 39° W 18:35:35 10° SSW
Cosmos 1092 Rocket 4.4 18:26:21 10° SSE 18:32:04 38° E 18:35:05 24° NE
Aureole 2 Rocket 2.5 18:28:50 10° SSW 18:32:32 76° ESE 18:33:25 51° NE
Cosmos 1805 Rocket 3.4 18:31:30 10° S 18:35:55 72° E 18:38:21 27° NNE
BREEZE M DEB (TANK) 2.8 18:34:52 10° W 18:37:01 31° SW 18:37:01 31° SW
Orbus 7S? 4.2 18:33:41 10° NW 18:37:30 58° NE 18:40:09 34° E
Lacrosse 5 rocket 1.8 18:34:49 10° WNW 18:38:32 53° SW 18:40:18 28° SSE
Abrixas 4.3 18:38:14 10° SW 18:39:46 23° SSW 18:39:46 23° SSW
Meteor 1-28 Rocket 4.0 18:39:50 13° N 18:42:58 49° WNW 18:46:32 10° SSW
CZ-4C R/B 4.1 18:52:04 10° NNW 18:56:52 21° NNE 18:57:30 21° NNE
Sich 1 3.2 18:53:22 10° S 18:57:08 63° SSE 18:57:08 63° SSE
Cosmos 1633 Rocket 4.0 18:57:54 10° S 19:00:37 37° S 19:00:37 37° S
Lacrosse 4 Rocket 3.2 18:58:49 10° NNW 19:00:22 21° NNW 19:00:22 21° NNW
FengYun 1-2 T 4.2 18:57:33 10° SSE 19:03:07 81° WSW 19:08:41 10° NNW
FENGYUN 3A 3.6 19:01:29 10° SSE 19:06:51 80° WSW 19:12:16 10° NNW
USA 215 4.1 19:02:16 10° SSE 19:08:31 46° SW 19:14:46 10° WNW
SJ-6B 4.5 19:05:31 10° SSW 19:09:16 35° W 19:13:06 10° NNW
ALOS 2.5 19:05:13 10° S 19:09:51 69° WSW 19:14:32 10° NNW
Cosmos 44 4.2 19:07:21 10° WSW 19:12:23 47° NW 19:13:37 39° N
ATLAS 3B R/B 4.3 19:08:08 10° NW 19:13:08 20° N 19:13:57 19° NNE
Cosmos 2333 Rocket 3.6 19:12:14 10° WSW 19:17:21 34° NW 19:20:56 18° N
Resurs 01 Rocket 2.1 19:17:34 53° SW 19:18:10 58° W 19:22:35 10° NNW
ATLAS 5 CENTAUR R/B 3.9 19:15:09 10° NNW 19:18:04 21° N 19:18:04 21° N
Cosmos 1461 4.4 19:16:09 10° SW 19:18:18 29° SW 19:18:18 29° SW
Cosmos 2219 Rocket 4.1 19:22:24 10° WSW 19:26:57 25° NW 19:30:32 14° N
Cosmos 1943 Rocket 4.4 19:34:00 10° N 19:34:43 13° N 19:34:43 13° N
USA 229 DEB 4.3 19:44:57 10° SSW 19:49:29 45° SSW 19:49:29 45° SSW
USA 229 4.3 19:45:03 10° SSW 19:49:32 44° SSW 19:49:32 44° SSW
Lacrosse 5 4.0 19:50:58 10° NW 19:52:57 19° NNW 19:52:57 19° NNW
CENTAUR R/B 4.3 19:52:16 10° WNW 19:57:37 25° NNW 19:59:12 23° N
Cosmos 2237 Rocket 4.2 19:54:51 10° W 19:59:16 23° NW 20:01:05 20° NNW
Cosmos 2369 Rocket 4.1 19:56:37 10° NNW 19:58:25 21° NNW 19:58:25 21° NNW
SL-16 R/B 3.4 19:58:51 10° SW 20:03:37 39° WNW 20:03:37 39° WNW
